IRIDIUM 46

Last updated on Wed Nov 29 2017 00:19:02 GMT+0000 (Coordinated Universal Time)

1 24905U 97043C 17332.52817530 .00000021 00000-0 53711-6 0 9996 2 24905 86.3993 186.7615 0001923 98.8489 261.2924 14.34221766 61385
UTC large
Height (km)
Speed (km/s)
/
Latitude / Longitude
Inclination (degrees)
Orbital Period (minutes)
Azimuth
Elevation
Range (km)
Doppler Factor

Next 0 passes for location: London (51.5072 / 0.1276)

Sorry there are no passes over London.